179  
NZUS01 KOTX 180957  
RWROTX  
 
EASTERN WASHINGTON/NORTHERN IDAHO ROUNDUP  
NATIONAL WEATHER SERVICE, SPOKANE WA  
200 AM PST SAT NOV 18 2017  
 
NOTE: "FAIR" INDICATED FEW OR NO CLOUDS BELOW 12,000 FEET WITH NO  
SIGNIFICANT WEATHER AND/OR S TO VISIBILITY
.  
   
..NORTHEAST WASHINGTON AND NORTHERN IDAHO PANHANDLE
 
 
 
CITY SKY/WX TMP DP RH WIND PRES REMARKS
 
SPOKANE INTL MOCLDY 32 31 96 S9 30.27R WCI 24  
SPOKANE DOWNTO MOCLDY 36 32 85 W3 30.30R  
DEER PARK MOCLDY 30 28 92 S5 30.28R WCI 25  
   
..SOUTHEAST WASHINGTON AND SOUTHERN IDAHO PANHANDLE
 
 
 
CITY SKY/WX TMP DP RH WIND PRES REMARKS
 
WALLA WALLA MOCLDY 43 32 65 S10 30.35R  
PULLMAN/MOSCOW MOCLDY 35 30 82 SW10 30.32S WCI 27  
LOWELL N/A 37 35 92 CALM 30.40R  
   
..COLUMBIA BASIN
 
 
 
CITY SKY/WX TMP DP RH WIND PRES REMARKS
 
EPHRATA CLOUDY 36 26 67 CALM 30.27R  
MOSES LAKE CLOUDY 41 31 67 W7 30.28S  
PASCO CLOUDY 44 36 73 SW8 30.35R  
HERMISTON PTCLDY 35 30 82 SE5 30.35R  
PENDLETON PTCLDY 35 28 75 S8 30.34R WCI 29  
   
..EAST SLOPES CASCADES
 
 
 
CITY SKY/WX TMP DP RH WIND PRES REMARKS
 
THE DALLES PTCLDY 38 35 89 E3 30.37S  
YAKIMA MOCLDY 32 27 81 W6 30.32R WCI 26  
ELLENSBURG PTCLDY 32 28 85 CALM 30.28R  
OMAK PTCLDY 31 27 85 SW5 30.26R WCI 26  
SUNNYSIDE PTSUNNY 35 31 85 CALM 30.32S  
   
..SOUTHERN BRITISH COLUMBIA
 
 
 
CITY SKY/WX TMP DP RH WIND PRES REMARKS
 
   
..WESTERN MONTANA
 
 
 
CITY SKY/WX TMP DP RH WIND PRES REMARKS
 
MISSOULA CLOUDY 35 24 64 CALM 30.25R  
   
..NEIGHBORING CITIES
 
 
 
CITY SKY/WX TMP DP RH WIND PRES REMARKS
 
SEATTLE CLOUDY 46 39 76 S12 30.31S  
PORTLAND CLEAR 44 40 85 SE3 30.37S  
BOISE CLEAR 30 24 78 SE8 30.39R WCI 22  
GREAT FALLS CLOUDY 33 17 51 SW20 30.04R WCI 21  
 
CLICK HERE TO GO TO PREVIOUS BULLETINS.

The Nexlab WA Page
The Nexlab ID Page Main Text Page